FENGYUN 1C DEB

Satellite information

Favourite Embed

Satellite Type and Status

DEBRISIN ORBIT

Key statistics

Satellite FENGYUN 1C DEB at a glance.

Uptime

9615

Days in orbit

Revolutions

≈ 14.9

Per day

Orbit

SSO

Sun Synchronous Orbit

Inclination

99.5

Latest

Satellite identification and parameters

Extended collection of information and parameters for FENGYUN 1C DEB.

Object identification

Identified? True

Debris? True

Object name: FENGYUN 1C DEB

International designator: 1999-025AYA

Object number (NORAD): 30888

Object ID (CCSDS): 30888

Country: PEOPLES REPUBLIC OF CHINA (PRC)

Current information (Y/N): Y

RCS size: SMALL

Orbital parameters

Period: 96.671 minutes

Inclination: 99.4698 deg

SMA: 6977.37 km

Apoapsis: 663.481 km

Periapsis: 534.99 km

RAAN: 205.5644 deg

Eccentricy: 0.00920763

Argument of periapsis: 107.3115 deg

Mean anomaly: 253.8196 deg

Mean motion: 14.89584311 rev/day

Mean motion (dot): 0.00020679 rev/day2

B* drag term: 0.0020029422 1/REarth

Two-line elements (TLE)

Creation date: Sept. 4, 2025, 4:29 a.m.

Reference frame: TEME

Reference center: EARTH

Epoch: Sept. 3, 2025, 8:08 p.m. UTC

TLE line 0: 0 FENGYUN 1C DEB

TLE line 1: 1 30888U 99025AYA 25246.83888951 .00020679 00000-0 20029-2 0 9990

TLE line 2: 2 30888 99.4698 205.5644 0092076 107.3115 253.8196 14.89584311984360

Live tracking on map

Real-time ground track for satellite FENGYUN 1C DEB.

In-orbit conjunctions

A list of the most updated potential collisions computed for object FENGYUN 1C DEB.

Target Orbit TCA Probability of collision Miss distance Type
SL-14 R/B LEO 2025-03-25 07:45:15 0.0001481489 708.0 (m) ROCKET BODY
ELECTRON KICK STAGE R/B SSO 2024-11-13 01:39:34 0.0007079946 221.0 (m) ROCKET BODY

Associated space launch

Chinese polar orbiting meteorological satellite

FENGYUN 1C DEB was lifted into orbit during the mission ‘Long March 4B | Feng Yun 1C’, on board a Long March 4B space rocket.

The launch took place on May 10, 1999, 1:33 a.m. from Launch Complex 7.

For more information about the launch, click the button.

Launch to space Long March 4B | Feng Yun 1C
Long March 4B | Feng Yun 1C

Agency: N/A

Status: Launch Successful

Launch date: May 10, 1999, 1:33 a.m. UTC

Rocket: Long March 4B

Launch pad: Launch Complex 7

Location: Taiyuan Satellite Launch Center, People's Republic of China

...

Latest news about this satellite

There are no fresh news available about this satellite. Check back as we update our databases every day.


Newsletter sign-up

Weekly statistics, charts and insights to help you stay on top of the space industry.